Location: Guferjoch
(46.7462°N, 8.4506°E)
Time: 07:08:32
(UTC+00:00)

Cosmos 1447 Rocket - Visible Passes

Search period start: 20 October 2020 00:00
Search period end: 30 October 2020 00:00
Orbit: 953 x 997 km, 82.9° (Epoch: 19 October)

Date Brightness Start Highest point End Pass type
(mag) Time Alt. Az. Time Alt. Az. Time Alt. Az.
20 Oct 7.1 00:46:34 13° NE 00:46:34 13° NE 00:47:23 10° NNE visible
20 Oct 6.1 02:31:14 24° N 02:31:14 24° N 02:33:33 10° N visible
21 Oct 6.8 01:11:59 16° NNE 01:11:59 16° NNE 01:13:13 10° NNE visible
21 Oct 6.2 02:56:39 19° NNW 02:56:39 19° NNW 02:58:29 10° N visible
22 Oct 6.7 01:37:21 17° NNE 01:37:21 17° NNE 01:38:42 10° NNE visible
22 Oct 6.5 03:22:01 13° NNW 03:22:01 13° NNW 03:23:04 10° NNW visible
23 Oct 6.6 02:02:43 17° N 02:02:43 17° N 02:03:57 10° N visible
24 Oct 7.3 00:43:24 10° NNE 00:43:24 10° NNE 00:43:27 10° NNE visible
24 Oct 6.6 02:28:04 14° N 02:28:04 14° N 02:28:57 10° N visible
25 Oct 7.1 01:08:43 11° NNE 01:08:43 11° NNE 01:09:01 10° NNE visible
25 Oct 6.7 02:53:23 11° NNW 02:53:23 11° NNW 02:53:39 10° NNW visible
26 Oct 7.0 01:34:01 12° N 01:34:01 12° N 01:34:19 10° N visible
27 Oct 7.0 01:59:18 10° N 01:59:18 10° N 01:59:24 10° N visible
